Flag for Tajikistan Weather past 2 weeks in Dushanbe, Tajikistan

Now
72 °F

Clear.


Feels Like: 77 °F
Forecast: 49 / 77 °F
Wind: 6 mph from East

Location: Dushanbe Airport

Current Time: Apr 21, 2015 at 11:36:00 AM

Latest Report: Apr 21, 2015 at 11:00 AM


Visibility: N/A

Pressure: 30.12 "Hg

Humidity: 36%

Dew point: 43 °F

Location of DushanbeLocation

Historic Weather in Dushanbe — Graph

°F

Dushanbe temperature yesterday

Maximum temperature yesterday: 66 °F (at 4:30 PM)
Minimum temperature yesterday: 52 °F (at 4:30 AM)
Average temperature yesterday: 57 °F

Past Weeks' High & Low Weather Summary

 TemperatureHumidityPressure
High84 °F (Apr 13, 1:30 PM)100% (Apr 7, 2:00 AM)30.30 "Hg (Apr 7, 2:00 AM)
Low43 °F (Apr 9, 5:30 AM)15% (Apr 11, 1:30 PM)29.80 "Hg (Apr 19, 12:00 PM)
Average62 °F58%30.07 "Hg
* Reported Apr 6 10:00 AM — Apr 21 10:30 AM, Dushanbe, Weather by CustomWeather, © 2015

Note: Actual official high and low records may vary slightly from our data, if they occured in-between our weather recording intervals... More about our weather records

Advertising

Dushanbe weather history for previous 24 hours

 ConditionsComfort  
Time TempWeatherWind HumidityBarometerVisibility
10:30 AM
Tue, Apr 21
70 °FClear.6 mph35%30.15 "HgN/A
10:00 AM70 °FClear.6 mph40%30.15 "HgN/A
9:30 AM66 °FClear.6 mph40%30.15 "HgN/A
9:00 AM64 °FClear.3 mph49%30.15 "HgN/A
8:30 AM63 °FClear.6 mph52%30.15 "HgN/A
8:00 AM59 °FClear.3 mph68%30.15 "HgN/A
7:30 AM57 °FClear.3 mph67%30.15 "HgN/A
7:00 AM52 °FClear.3 mph82%30.15 "HgN/A
6:30 AM50 °FClear.3 mph82%30.15 "HgN/A
6:00 AM46 °FClear.1 mph87%30.15 "HgN/A
5:30 AM46 °FClear.No wind93%30.15 "HgN/A
5:00 AM48 °FClear.1 mph87%30.15 "HgN/A
4:30 AM48 °FClear.3 mph87%30.15 "HgN/A
4:00 AM48 °FClear.1 mph87%30.15 "HgN/A
3:30 AM50 °FClear.3 mph82%30.15 "HgN/A
3:00 AM48 °FClear.3 mph87%30.15 "HgN/A
2:00 AM48 °FClear.1 mph94%30.15 "HgN/A
1:30 AM52 °FClear.1 mph82%30.15 "HgN/A
1:00 AM52 °FClear.1 mph88%30.15 "HgN/A
12:30 AM52 °FClear.3 mph88%30.18 "HgN/A
12:00 AM52 °FClear.3 mph88%30.18 "HgN/A
11:30 PM
Mon, Apr 20
54 °FClear.1 mph82%30.18 "HgN/A
11:00 PM54 °FClear.3 mph88%30.18 "HgN/A
10:30 PM54 °FClear.3 mph82%30.18 "HgN/A
10:00 PM54 °FClear.3 mph88%30.18 "HgN/A
9:30 PM55 °FClear.1 mph82%30.18 "HgN/A
9:00 PM57 °FClear.1 mph77%30.18 "HgN/A
8:30 PM57 °FClear.3 mph77%30.15 "HgN/A
8:00 PM57 °FClear.3 mph77%30.15 "HgN/A
7:30 PM59 °FPassing clouds.1 mph72%30.15 "HgN/A
7:00 PM63 °FPassing clouds.1 mph59%30.15 "HgN/A
6:30 PM64 °FPassing clouds.1 mph60%30.12 "HgN/A
6:00 PM64 °FPassing clouds.6 mph60%30.12 "HgN/A
5:30 PM66 °FPassing clouds.6 mph56%30.12 "HgN/A
5:00 PM66 °FPassing clouds.6 mph56%30.12 "HgN/A
4:30 PM66 °FPassing clouds.6 mph56%30.12 "HgN/A
4:00 PM64 °FPassing clouds.8 mph56%30.12 "HgN/A
3:30 PM64 °FPartly sunny.8 mph64%30.12 "HgN/A
3:00 PM64 °FBroken clouds.3 mph60%30.12 "HgN/A
2:30 PM63 °FBroken clouds.6 mph64%30.12 "HgN/A
2:00 PM63 °FBroken clouds.3 mph64%30.12 "HgN/A
1:30 PM61 °FBroken clouds.3 mph63%30.12 "HgN/A
1:00 PM61 °FBroken clouds.3 mph72%30.12 "HgN/A
12:30 PM59 °FBroken clouds.6 mph77%30.12 "HgN/A
12:00 PM57 °FScattered clouds.6 mph82%30.12 "HgN/A
11:30 AM57 °FScattered clouds.6 mph82%30.12 "HgN/A
11:00 AM55 °FMore clouds than sun.6 mph88%30.12 "HgN/A
Weather by CustomWeather, © 2015

See weather overviewHow to use our weather pages